Time,TemperatureF,DewpointF,PressureIn,WindDirection,WindDirectionDegrees,WindSpeedMPH,WindSpeedGustMPH,Humidity,HourlyPrecipIn,Conditions,Clouds,dailyrainin,SoftwareType,DateUTC
2013-03-01 07:20:00,32.0,32.0,29.90,NW,315,0.0,0.0,100,0.00,,,-99.99,Weather View 32 v60,2013-03-01 12:20:00,
2013-03-01 07:25:00,32.0,32.0,29.90,West,270,0.0,0.0,100,0.00,,,-99.99,Weather View 32 v60,2013-03-01 12:25:00,
2013-03-01 07:30:00,32.0,32.0,29.90,West,270,0.0,2.0,100,0.00,,,-99.99,Weather View 32 v60,2013-03-01 12:30:00,
2013-03-01 07:35:00,32.0,32.0,29.90,West,270,0.0,2.0,100,0.00,,,-99.99,Weather View 32 v60,2013-03-01 12:35:00,
2013-03-01 07:40:00,32.0,32.0,29.90,West,270,0.0,2.0,100,0.00,,,-99.99,Weather View 32 v60,2013-03-01 12:40:00,
2013-03-01 07:45:00,32.0,32.0,29.90,WNW,292,0.0,4.0,100,0.00,,,-99.99,Weather View 32 v60,2013-03-01 12:45:00,
2013-03-01 07:50:00,32.0,32.0,29.90,West,270,0.0,4.0,100,0.00,,,-99.99,Weather View 32 v60,2013-03-01 12:50:00,
2013-03-01 07:55:00,33.0,33.0,29.90,West,270,0.0,4.0,100,0.00,,,-99.99,Weather View 32 v60,2013-03-01 12:55:00,
2013-03-01 08:00:00,33.0,33.0,29.90,WNW,292,0.0,4.0,100,0.00,,,-99.99,Weather View 32 v60,2013-03-01 13:00:00,
2013-03-01 08:05:00,33.0,33.0,29.90,WSW,247,0.0,4.0,100,0.00,,,-99.99,Weather View 32 v60,2013-03-01 13:05:00,
2013-03-01 08:10:00,33.0,33.0,29.90,NW,315,0.0,4.0,100,0.00,,,-99.99,Weather View 32 v60,2013-03-01 13:10:00,
2013-03-01 08:15:00,33.0,33.0,29.90,NNW,337,0.0,4.0,100,0.00,,,-99.99,Weather View 32 v60,2013-03-01 13:15:00,
2013-03-01 08:20:00,33.0,33.0,29.90,NNW,337,0.0,4.0,100,0.00,,,-99.99,Weather View 32 v60,2013-03-01 13:20:00,
2013-03-01 08:25:00,34.0,34.0,29.90,West,270,3.0,4.0,100,0.00,,,-99.99,Weather View 32 v60,2013-03-01 13:25:00,
2013-03-01 08:30:00,34.0,34.0,29.90,WNW,292,0.0,4.0,100,0.00,,,-99.99,Weather View 32 v60,2013-03-01 13:30:00,
2013-03-01 08:35:00,34.0,34.0,29.90,WNW,292,4.0,4.0,100,0.00,,,-99.99,Weather View 32 v60,2013-03-01 13:35:00,
2013-03-01 08:40:00,34.0,34.0,29.90,NW,315,0.0,4.0,100,0.00,,,-99.99,Weather View 32 v60,2013-03-01 13:40:00,
2013-03-01 08:45:00,34.0,34.0,29.90,NE,45,0.0,4.0,100,0.00,,,-99.99,Weather View 32 v60,2013-03-01 13:45:00,
2013-03-01 08:50:00,34.0,34.0,29.90,NW,315,0.0,5.0,100,0.00,,,-99.99,Weather View 32 v60,2013-03-01 13:50:00,
2013-03-01 08:55:00,34.0,34.0,29.90,North,360,0.0,5.0,100,0.00,,,-99.99,Weather View 32 v60,2013-03-01 13:55:00,
2013-03-01 09:00:00,34.0,34.0,29.90,West,270,4.0,5.0,100,0.00,,,-99.99,Weather View 32 v60,2013-03-01 14:00:00,
2013-03-01 09:05:00,34.0,34.0,29.90,WNW,292,0.0,5.0,100,0.00,,,-99.99,Weather View 32 v60,2013-03-01 14:05:00,
2013-03-01 09:10:00,34.0,34.0,29.90,SW,225,0.0,5.0,100,0.00,,,-99.99,Weather View 32 v60,2013-03-01 14:10:00,
2013-03-01 09:15:00,34.0,34.0,29.90,NNW,337,1.0,5.0,100,0.00,,,-99.99,Weather View 32 v60,2013-03-01 14:15:00,
2013-03-01 09:20:00,34.0,34.0,29.90,WNW,292,0.0,5.0,100,0.00,,,-99.99,Weather View 32 v60,2013-03-01 14:20:00,
2013-03-01 09:25:00,34.0,34.0,29.90,West,270,0.0,5.0,100,0.00,,,-99.99,Weather View 32 v60,2013-03-01 14:25:00,
2013-03-01 09:30:00,34.0,34.0,29.90,WNW,292,0.0,5.0,100,0.00,,,-99.99,Weather View 32 v60,2013-03-01 14:30:00,
2013-03-01 09:35:00,34.0,34.0,29.90,West,270,0.0,5.0,100,0.00,,,-99.99,Weather View 32 v60,2013-03-01 14:35:00,
2013-03-01 09:45:00,34.0,34.0,29.90,WSW,247,0.0,5.0,100,0.00,,,-99.99,Weather View 32 v60,2013-03-01 14:45:00,
2013-03-01 09:50:00,33.0,33.0,29.90,North,360,0.0,5.0,100,0.00,,,-99.99,Weather View 32 v60,2013-03-01 14:50:00,
2013-03-01 09:55:00,33.0,33.0,29.90,WNW,292,3.0,5.0,100,0.00,,,-99.99,Weather View 32 v60,2013-03-01 14:55:00,
2013-03-01 10:00:00,34.0,34.0,29.90,West,270,0.0,5.0,100,0.00,,,-99.99,Weather View 32 v60,2013-03-01 15:00:00,
2013-03-01 10:05:00,35.0,35.0,29.90,NE,45,0.0,5.0,100,0.00,,,-99.99,Weather View 32 v60,2013-03-01 15:05:00,
2013-03-01 10:10:00,35.0,35.0,29.90,West,270,2.0,7.0,100,0.00,,,-99.99,Weather View 32 v60,2013-03-01 15:10:00,
2013-03-01 10:15:00,36.0,36.0,29.90,North,360,0.0,7.0,100,0.00,,,-99.99,Weather View 32 v60,2013-03-01 15:15:00,
2013-03-01 10:20:00,36.0,36.0,29.90,NNW,337,1.0,7.0,100,0.00,,,-99.99,Weather View 32 v60,2013-03-01 15:20:00,
2013-03-01 10:25:00,36.0,36.0,29.90,West,270,0.0,7.0,100,0.00,,,-99.99,Weather View 32 v60,2013-03-01 15:25:00,
2013-03-01 10:30:00,36.0,36.0,29.90,NW,315,0.0,7.0,100,0.00,,,-99.99,Weather View 32 v60,2013-03-01 15:30:00,
2013-03-01 10:35:00,36.0,36.0,29.90,NNW,337,0.0,7.0,100,0.00,,,-99.99,Weather View 32 v60,2013-03-01 15:35:00,
2013-03-01 10:40:00,36.0,36.0,29.90,WNW,292,0.0,7.0,100,0.00,,,-99.99,Weather View 32 v60,2013-03-01 15:40:00,
2013-03-01 10:45:00,36.0,36.0,29.90,NW,315,0.0,7.0,100,0.00,,,-99.99,Weather View 32 v60,2013-03-01 15:45:00,
2013-03-01 10:50:00,36.0,36.0,29.90,NW,315,3.0,7.0,100,0.00,,,-99.99,Weather View 32 v60,2013-03-01 15:50:00,
2013-03-01 10:55:00,36.0,36.0,29.90,West,270,0.0,7.0,100,0.00,,,-99.99,Weather View 32 v60,2013-03-01 15:55:00,
2013-03-01 11:00:00,36.0,36.0,29.90,NW,315,0.0,7.0,100,0.00,,,-99.99,Weather View 32 v60,2013-03-01 16:00:00,
2013-03-01 11:05:00,36.0,36.0,29.90,NNW,337,0.0,7.0,100,0.00,,,-99.99,Weather View 32 v60,2013-03-01 16:05:00,
2013-03-01 11:10:00,36.0,36.0,29.90,North,360,0.0,6.0,100,0.00,,,-99.99,Weather View 32 v60,2013-03-01 16:10:00,
2013-03-01 11:15:00,37.0,37.0,29.90,West,270,2.0,6.0,100,0.00,,,-99.99,Weather View 32 v60,2013-03-01 16:15:00,
2013-03-01 11:20:00,36.0,36.0,29.90,NW,315,0.0,6.0,100,0.00,,,-99.99,Weather View 32 v60,2013-03-01 16:20:00,
2013-03-01 11:25:00,36.0,36.0,29.90,WSW,247,0.0,6.0,100,0.00,,,-99.99,Weather View 32 v60,2013-03-01 16:25:00,
2013-03-01 11:30:00,37.0,37.0,29.90,WSW,247,0.0,6.0,100,0.00,,,-99.99,Weather View 32 v60,2013-03-01 16:30:00,
2013-03-01 11:35:00,37.0,37.0,29.90,WSW,247,2.0,6.0,100,0.00,,,-99.99,Weather View 32 v60,2013-03-01 16:35:00,
2013-03-01 11:40:00,37.0,37.0,29.89,North,360,3.0,6.0,100,0.00,,,-99.99,Weather View 32 v60,2013-03-01 16:40:00,
2013-03-01 11:45:00,37.0,37.0,29.89,NNW,337,0.0,6.0,100,0.00,,,-99.99,Weather View 32 v60,2013-03-01 16:45:00,
2013-03-01 11:50:00,37.0,37.0,29.90,NNW,337,0.0,6.0,100,0.00,,,-99.99,Weather View 32 v60,2013-03-01 16:50:00,
2013-03-01 11:55:00,37.0,37.0,29.90,NNE,22,0.0,6.0,100,0.00,,,-99.99,Weather View 32 v60,2013-03-01 16:55:00,
2013-03-01 12:00:00,37.0,37.0,29.89,West,270,4.0,6.0,100,0.00,,,-99.99,Weather View 32 v60,2013-03-01 17:00:00,
2013-03-01 12:05:00,37.0,37.0,29.89,WNW,292,0.0,6.0,100,0.00,,,-99.99,Weather View 32 v60,2013-03-01 17:05:00,
2013-03-01 12:10:00,37.0,37.0,29.89,NNW,337,0.0,6.0,100,0.00,,,-99.99,Weather View 32 v60,2013-03-01 17:10:00,
2013-03-01 12:15:00,37.0,37.0,29.89,West,270,0.0,6.0,100,0.00,,,-99.99,Weather View 32 v60,2013-03-01 17:15:00,
2013-03-01 12:20:00,37.0,37.0,29.89,North,360,0.0,6.0,100,0.00,,,-99.99,Weather View 32 v60,2013-03-01 17:20:00,
2013-03-01 12:25:00,37.0,37.0,29.88,West,270,0.0,6.0,100,0.00,,,-99.99,Weather View 32 v60,2013-03-01 17:25:00,
2013-03-01 12:30:00,37.0,37.0,29.88,West,270,0.0,6.0,100,0.00,,,-99.99,Weather View 32 v60,2013-03-01 17:30:00,
2013-03-01 12:35:00,37.0,37.0,29.88,SW,225,0.0,6.0,100,0.00,,,-99.99,Weather View 32 v60,2013-03-01 17:35:00,
2013-03-01 12:40:00,37.0,37.0,29.88,WSW,247,3.0,6.0,100,0.00,,,-99.99,Weather View 32 v60,2013-03-01 17:40:00,
2013-03-01 12:45:00,37.0,37.0,29.87,NW,315,0.0,6.0,100,0.00,,,-99.99,Weather View 32 v60,2013-03-01 17:45:00,
2013-03-01 12:50:00,37.0,37.0,29.87,North,360,0.0,6.0,100,0.00,,,-99.99,Weather View 32 v60,2013-03-01 17:50:00,
2013-03-01 12:55:00,37.0,37.0,29.87,NW,315,0.0,6.0,100,0.00,,,-99.99,Weather View 32 v60,2013-03-01 17:55:00,
2013-03-01 13:00:00,37.0,37.0,29.87,NW,315,0.0,6.0,100,0.00,,,-99.99,Weather View 32 v60,2013-03-01 18:00:00,
2013-03-01 13:10:00,37.0,37.0,29.87,WNW,292,0.0,6.0,100,0.00,,,-99.99,Weather View 32 v60,2013-03-01 18:10:00,
2013-03-01 13:15:00,37.0,37.0,29.87,NNW,337,5.0,6.0,100,0.00,,,-99.99,Weather View 32 v60,2013-03-01 18:15:00,
2013-03-01 13:20:00,37.0,37.0,29.87,WSW,247,4.0,6.0,100,0.00,,,-99.99,Weather View 32 v60,2013-03-01 18:20:00,
2013-03-01 13:35:00,37.0,37.0,29.87,WNW,292,3.0,6.0,100,0.00,,,-99.99,Weather View 32 v60,2013-03-01 18:35:00,
2013-03-01 14:00:00,37.0,37.0,29.87,NNW,337,2.0,7.0,100,0.00,,,-99.99,Weather View 32 v60,2013-03-01 19:00:00,
2013-03-01 14:04:00,37.0,37.0,29.87,NNW,337,0.0,6.0,100,0.00,,,-99.99,Weather View 32 v60,2013-03-01 19:04:00,
2013-03-01 14:15:00,37.0,37.0,29.87,WSW,247,0.0,7.0,100,0.00,,,-99.99,Weather View 32 v60,2013-03-01 19:15:00,
2013-03-01 14:19:00,37.0,37.0,29.87,WSW,247,4.0,6.0,100,0.00,,,-99.99,Weather View 32 v60,2013-03-01 19:19:00,
2013-03-01 14:25:00,37.0,37.0,29.87,WNW,292,0.0,7.0,100,0.00,,,-99.99,Weather View 32 v60,2013-03-01 19:25:00,
2013-03-01 14:29:00,37.0,37.0,29.87,West,270,0.0,6.0,100,0.00,,,-99.99,Weather View 32 v60,2013-03-01 19:29:00,
2013-03-01 14:39:00,37.0,37.0,29.87,North,360,2.0,7.0,100,0.00,,,-99.99,Weather View 32 v60,2013-03-01 19:39:00,
2013-03-01 14:44:00,37.0,37.0,29.87,SW,225,1.0,7.0,100,0.00,,,-99.99,Weather View 32 v60,2013-03-01 19:44:00,
2013-03-01 14:54:00,37.0,37.0,29.87,NW,315,0.0,7.0,100,0.00,,,-99.99,Weather View 32 v60,2013-03-01 19:54:00,
2013-03-01 15:04:00,37.0,37.0,29.87,West,270,2.0,7.0,100,0.00,,,-99.99,Weather View 32 v60,2013-03-01 20:04:00,
2013-03-01 15:09:00,36.0,36.0,29.87,WNW,292,0.0,7.0,100,0.00,,,-99.99,Weather View 32 v60,2013-03-01 20:09:00,
2013-03-01 15:19:00,37.0,37.0,29.87,NNW,337,0.0,7.0,100,0.00,,,-99.99,Weather View 32 v60,2013-03-01 20:19:00,
2013-03-01 18:25:00,33.0,33.0,29.91,WNW,292,0.0,0.0,100,0.00,,,-99.99,Weather View 32 v60,2013-03-01 23:25:00,
2013-03-01 18:30:00,33.0,33.0,29.91,WNW,292,0.0,0.0,100,0.00,,,-99.99,Weather View 32 v60,2013-03-01 23:30:00,
2013-03-01 18:35:00,33.0,33.0,29.91,WNW,292,0.0,0.0,100,0.00,,,-99.99,Weather View 32 v60,2013-03-01 23:35:00,
2013-03-01 18:45:00,33.0,33.0,29.91,WNW,292,0.0,0.0,100,0.00,,,-99.99,Weather View 32 v60,2013-03-01 23:45:00,
2013-03-01 18:50:00,33.0,33.0,29.91,WNW,292,0.0,0.0,100,0.00,,,-99.99,Weather View 32 v60,2013-03-01 23:50:00,
2013-03-01 18:55:00,33.0,33.0,29.91,West,270,0.0,3.0,100,0.00,,,-99.99,Weather View 32 v60,2013-03-01 23:55:00,
2013-03-01 19:15:00,33.0,33.0,29.91,West,270,0.0,0.0,100,0.00,,,-99.99,Weather View 32 v60,2013-03-02 00:15:00,
2013-03-01 19:39:00,33.0,33.0,29.91,NNW,337,0.0,0.0,100,0.00,,,-99.99,Weather View 32 v60,2013-03-02 00:39:00,
2013-03-01 19:54:00,33.0,33.0,29.91,West,270,0.0,3.0,100,0.00,,,-99.99,Weather View 32 v60,2013-03-02 00:54:00,